TimeCDT,TemperatureF,Dew PointF,Humidity,Sea Level PressureIn,VisibilityMPH,Wind Direction,Wind SpeedMPH,Gust SpeedMPH,PrecipitationIn,Events,Conditions,WindDirDegrees,DateUTC
12:54 AM,36.0,28.9,76,30.17,10.0,SSE,4.6,-,N/A,,Clear,160,2011-11-01 05:54:00
1:54 AM,37.0,30.0,76,30.18,10.0,SSE,6.9,-,N/A,,Clear,160,2011-11-01 06:54:00
2:54 AM,35.1,30.0,82,30.18,10.0,Calm,Calm,-,N/A,,Clear,0,2011-11-01 07:54:00
3:54 AM,35.1,30.0,82,30.16,10.0,Calm,Calm,-,N/A,,Clear,0,2011-11-01 08:54:00
4:54 AM,37.9,32.0,79,30.17,10.0,SSE,6.9,-,N/A,,Clear,160,2011-11-01 09:54:00
5:54 AM,36.0,30.0,79,30.17,10.0,SE,3.5,-,N/A,,Clear,140,2011-11-01 10:54:00
6:54 AM,39.0,32.0,76,30.16,10.0,South,6.9,-,N/A,,Clear,170,2011-11-01 11:54:00
7:54 AM,42.8,33.8,70,30.16,10.0,South,9.2,-,N/A,,Clear,170,2011-11-01 12:54:00
8:54 AM,44.6,33.8,66,30.17,10.0,South,10.4,-,N/A,,Clear,180,2011-11-01 13:54:00
9:54 AM,52.0,36.0,54,30.18,10.0,South,13.8,-,N/A,,Clear,190,2011-11-01 14:54:00
10:54 AM,57.9,37.9,47,30.18,10.0,SW,13.8,-,N/A,,Clear,220,2011-11-01 15:54:00
11:54 AM,64.4,41.0,42,30.15,10.0,South,11.5,-,N/A,,Clear,190,2011-11-01 16:54:00
12:54 PM,68.0,42.1,39,30.13,10.0,SSW,13.8,-,N/A,,Clear,210,2011-11-01 17:54:00
1:54 PM,71.6,42.8,35,30.10,10.0,South,16.1,25.3,N/A,,Clear,190,2011-11-01 18:54:00
2:54 PM,71.1,41.0,34,30.09,10.0,South,10.4,24.2,N/A,,Clear,190,2011-11-01 19:54:00
3:54 PM,71.1,39.0,31,30.08,10.0,South,18.4,-,N/A,,Clear,190,2011-11-01 20:54:00
4:54 PM,69.1,37.9,32,30.08,10.0,South,16.1,23.0,N/A,,Clear,170,2011-11-01 21:54:00
5:54 PM,66.2,37.4,35,30.08,10.0,South,15.0,-,N/A,,Clear,180,2011-11-01 22:54:00
6:54 PM,61.0,37.9,42,30.10,10.0,South,10.4,-,N/A,,Clear,180,2011-11-01 23:54:00
7:54 PM,59.0,37.0,44,30.10,10.0,South,12.7,-,N/A,,Clear,180,2011-11-02 00:54:00
8:54 PM,59.0,37.0,44,30.10,10.0,South,16.1,-,N/A,,Clear,180,2011-11-02 01:54:00
9:54 PM,55.9,36.0,47,30.12,10.0,South,11.5,-,N/A,,Clear,180,2011-11-02 02:54:00
10:54 PM,53.6,35.6,51,30.11,10.0,South,13.8,-,N/A,,Clear,180,2011-11-02 03:54:00
11:54 PM,52.0,36.0,54,30.12,10.0,South,11.5,-,N/A,,Clear,190,2011-11-02 04:54:00